Regional Weather Roundup
Issued by NWS

Home | Current Version | Previous Version | Text Only | Print | Product List | Glossary Off
Versions: 1 2 3 4 5 6 7 8 9 10 11 12 13 14 15 16 17 18 19 20 21 22 23 24 25 26 27 28 29 30 31 32 33 34 35 36 37 38 39 40 41 42 43 44 45 46 47 48 49 50

000
ASUS43 KMPX 210801
RWRMN
WEATHER ROUNDUP FOR MINNESOTA
NATIONAL WEATHER SERVICE TWIN CITIES/CHANHASSEN MN
300 AM CDT TUE APR 21 2015


NOTE: "FAIR" INDICATES FEW OR NO CLOUDS BELOW 12,000 FEET WITH NO
SIGNIFICANT WEATHER AND/OR OBSTRUCTIONS TO VISIBILITY. N/A MEANS
CURRENT SKY AND/OR WEATHER CONDITIONS ARE NOT AVAILABLE.

MNZ060>063-068>070-210900-
   Twin Cities Metro

CITY           SKY/WX    TMP DP  RH WIND       PRES   REMARKS
TWIN CITIES    CLOUDY    36  25  64 W18G24    29.52F
ST PAUL        CLOUDY    36  25  64 NW20      29.52F
CRYSTAL        CLOUDY    37  26  64 W10G20    29.51F
BLAINE         CLOUDY    37  27  65 W18G26    29.51S
LAKEVILLE      CLOUDY    34  27  75 W15       29.53S WCI  24
EDEN PRAIRIE   FLURRIES  36  26  67 NW17G25   29.53S
SOUTH ST PAUL  CLOUDY    37  26  64 NW18G28   29.52S
LAKE ELMO      CLOUDY    36  28  75 W15       29.51F
$$
MNZ001>005-007-008-013>017-022>024-027-028-210900-
   Northwest Minnesota

CITY           SKY/WX    TMP DP  RH WIND       PRES   REMARKS
BEMIDJI          N/A     30  26  84 NW17G25   29.47F WCI  18
HALLOCK        CLOUDY    34  30  86 NW23G35   29.60R WCI  22
ROSEAU         FLURRIES  30  27  86 NW17      29.52R WCI  18
WARROAD        FLURRIES  30  27  86 NW16G23   29.50R WCI  19
THIEF RVR FALL CLOUDY    32  27  80 NW20      29.55S WCI  20
CROOKSTON      CLOUDY    34  28  80 N24G30    29.60S WCI  21
FOSSTON        CLOUDY    28  27  93 NW18G24   29.54S WCI  16
DETROIT LAKES  CLOUDY    32  30  93 NW20      29.57S WCI  20
MOORHEAD       CLOUDY    34  27  75 NW16      29.63S WCI  23
PARK RAPIDS    CLOUDY    34  24  67 NW17      29.49F WCI  23
MAHNOMEN       CLOUDY    30  28  92 NW18      29.55F WCI  18
$$
MNZ006-009>011-018-025>026-210900-
   North Central Minnesota

CITY           SKY/WX    TMP DP  RH WIND       PRES   REMARKS
BAUDETTE       LGT SNOW  30  28  92 NW18      29.43S FOG     WCI  18
FLAG ISLAND    CLOUDY    30  27  86 N20G30    29.47R WCI  18
INTL FALLS     LGT SNOW  31  28  89 NW13      29.37S FOG     WCI  21
WASKISH        CLOUDY    30  28  93 W16G23    29.45R WCI  19
BIG FORK       LGT SNOW  30  28  93 NW6       29.40S WCI  24
LONGVILLE      CLOUDY    30  27  86 NW12G22   29.45S WCI  21
GRAND RAPIDS   CLOUDY    30  25  80 NW20G29   29.40S WCI  18
CRANE LAKE     CLOUDY    30  30 100 NW3       29.34S
ORR            LGT SNOW  30  27  86 NW12G20   29.32R WCI  21
COOK           LGT SNOW  30  28  93 W10       29.34S WCI  21
$$
MNZ012-019>021-037-210900-
   Northeast Minnesota

CITY           SKY/WX    TMP DP  RH WIND       PRES   REMARKS
DULUTH         LGT SNOW  32  27  81 W15G25    29.34S WCI  22
ELY            LGT SNOW  30  30 100 W7        29.28S WCI  23
HIBBING        FLURRIES  31  25  78 NW15G22   29.36S WCI  20
EVELETH        LGT SNOW  32  30  93 W13       29.35S WCI  22
DULUTH HARBOR  CLOUDY    36  30  80 W16G22    29.38S
TWO HARBORS    CLOUDY    36  30  80 W8G17     29.30S
SILVER BAY     CLOUDY    34  28  80 W7        29.27F WCI  28
GRAND MARAIS     N/A     36  31  82 W6        29.24S
G MARAIS ARPRT LGT SNOW  30  27  86 W10       29.20S WCI  21
$$
MNZ029>031-032-039>041-046>048-054>057-064-210900-
   West Central Minnesota

CITY           SKY/WX    TMP DP  RH WIND       PRES   REMARKS
FERGUS FALLS   CLOUDY    32  23  69 NW22G31   29.63S WCI  19
WHEATON        CLOUDY    34  25  69 NW18G26   29.67S WCI  23
MORRIS         CLOUDY    34  28  80 NW16      29.62S WCI  23
ALEXANDRIA     CLOUDY    32  24  72 NW22G29   29.58R WCI  19
ELBOW LAKE     CLOUDY    32  28  86 NW22G28   29.61S WCI  19
WADENA         CLOUDY    30  23  74 NW17G25   29.53S WCI  18
GLENWOOD       CLOUDY    34  27  75 NW28G37   29.58S WCI  20
APPLETON       PTCLDY    37  28  70 NW16G22   29.64S
BENSON         CLOUDY    34  28  80 N15       29.62S WCI  24
ORTONVILLE     MOCLDY    37  27  65 NW21G29   29.65S
MADISON        MOCLDY    36  27  69 NW15G23   29.66F
WILLMAR        MOCLDY    36  32  87 W14       29.60F
$$
MNZ033>034-036-042>043-049>051-058-059-210900-
   Central Minnesota

CITY           SKY/WX    TMP DP  RH WIND       PRES   REMARKS
ST CLOUD       CLOUDY    35  25  66 W20       29.52S WCI  24
SAUK CENTRE    CLOUDY    33  25  72 NW18G30   29.55S WCI  22
PAYNESVILLE    CLOUDY    32  27  81 W16G30    29.57S WCI  21
AITKIN         FLURRIES  34  27  75 W9G21     29.44S WCI  26
PINE RIVER     CLOUDY    30  25  80 W12G18    29.51F WCI  21
BRAINERD       CLOUDY    32  24  72 NW14G30   29.49S WCI  22
STAPLES        CLOUDY    30  25  80 NW17      29.52S WCI  18
LONG PRAIRIE   CLOUDY    32  23  69 W22G31    29.54S WCI  19
LITTLE FALLS   FLURRIES  32  23  69 NW20G29   29.52R WCI  20
LITCHFIELD     CLOUDY    37  30  75 NW13      29.57S
BUFFALO        CLOUDY    36  25  66 W18G25    29.54F
MAPLE LAKE     CLOUDY    37  28  70 W18G24    29.54F
$$
MNZ037-044-045-052-053-210900-
   East Central Minnesota

CITY           SKY/WX    TMP DP  RH WIND       PRES   REMARKS
PRINCETON      MIX PCPN  36  27  69 W13G22    29.50F
MORA           MOCLDY    34  27  75 NW16G23   29.48S WCI  23
CAMBRIDGE      CLOUDY    37  25  60 W13G21    29.47S
RUSH CITY      CLOUDY    33  28  79 W10G16    29.47S WCI  25
MOOSE LAKE     LGT SNOW  32  28  86 W9G16     29.40S WCI  24
HINCKLEY       PTSUNNY   34  28  80 W8G17     29.44F WCI  27
CLOQUET        CLOUDY    32  27  80 W16G22    29.37S WCI  21
MCGREGOR       CLOUDY    32  30  93 W10       29.43F WCI  24
$$
MNZ071>073-080-081-089-090-097-098-210900-
   Southwest Minnesota

CITY           SKY/WX    TMP DP  RH WIND       PRES   REMARKS
MONTEVIDEO     CLOUDY    37  28  70 N10       29.65S
GRANITE FALLS  CLOUDY    35  28  76 W16       29.66S WCI  25
CANBY          CLOUDY    35  28  77 W10       29.68F WCI  27
MARSHALL       MOCLDY    34  23  64 W14       29.66S WCI  24
REDWOOD FALLS  CLEAR     34  27  75 W17       29.63S WCI  23
OLIVIA         MOCLDY    32  28  86 W15G22    29.61S WCI  22
PIPESTONE      CLEAR     28  25  86 W8        29.69S WCI  20
WORTHINGTON    CLEAR     30  21  69 W12       29.69S WCI  21
JACKSON        CLEAR     34  27  75 W13G18    29.66S WCI  25
TRACY          PTCLDY    35  27  72 W9        29.67S WCI  28
SLAYTON        CLEAR     32  26  77 W9        29.68S WCI  24
$$
MNZ065>067-074>077-082>085-091>093-210900-
   South Central Minnesota

CITY           SKY/WX    TMP DP  RH WIND       PRES   REMARKS
MANKATO        CLOUDY    36  25  64 NW20G26   29.60S
NEW ULM        CLOUDY    36  28  75 W14       29.62S
ST JAMES       CLEAR     36  28  75 W14       29.64S
FAIRMONT       CLEAR     36  25  64 W16G22    29.64S
GLENCOE        CLOUDY    37  32  82 W14       29.57S
FARIBAULT      PTCLDY    36  28  75 W14G20    29.56S
OWATONNA       CLOUDY    36  28  75 W20G28    29.57S
WASECA         CLOUDY    37  32  81 W18G25    29.60S
ALBERT LEA     MOCLDY    37  30  75 W8G18     29.59S
$$
MNZ078>079-086>088-094>096-210900-
   Southeast Minnesota

CITY           SKY/WX    TMP DP  RH WIND       PRES   REMARKS
ROCHESTER      CLOUDY    35  30  82 W18       29.54F WCI  24
RED WING       CLOUDY    36  30  80 W6        29.51F
STANTON        CLOUDY    37  27  67 NW18G26   29.53S
DODGE CENTER   MOCLDY    36  30  80 W18       29.54S
WINONA         MOCLDY    36  32  87 W15G21    29.53S
AUSTIN         MOCLDY    36  28  75 W21G26    29.57F
PRESTON        CLOUDY    35  30  85 W18G26    29.55S WCI  24
$$
ABBREVIATIONS USED IN REMARKS
   TC - TEMPERATURES IN CELSIUS
  WCI - WIND CHILL INDEX
   HX - HEAT INDEX
  VSB - VISIBILITY
$$


USA.gov is the U.S. government's official web portal to all federal, state and local government web resources and services.